[[{"header":{"parameterUnit":"m.s-1","parameterCategory":1,"la1":30.2992,"la2":30.254,"lo1":-89.0895,"lo2":-89.0443,"dy":0.0025,"dx":0.0025,"nx":19,"ny":19,"refTime":"2026-05-14T21:00:00:Z","depth":0,"parameterNumber":2,"parameterNumberName":"U-component_of_WINDS"},"data":[0,0,0,-1.6946,-1.6948,-1.7042,-1.7042,-1.7163,-1.7164,0,0,0,0,0,0,0,0,0,0,0,-1.6918,-1.6919,-1.6946,-1.6948,-1.7042,-1.7042,-1.7163,-1.7164,0,0,0,0,0,0,0,0,0,0,0,-1.6917,-1.6918,-1.6919,-1.6948,-1.7042,-1.7042,-1.7163,-1.7092,0,0,0,0,0,0,0,0,0,0,-1.7001,-1.6974,-1.6918,-1.6919,-1.6949,-1.7042,-1.7042,-1.7089,-1.7096,-1.7121,0,-1.7142,0,-1.7155,-1.7172,-1.7173,0,0,0,-1.6949,-1.6968,-1.6993,-1.692,-1.695,-1.7042,-1.7,-1.7093,-1.7102,-1.7131,-1.7143,-1.7148,-1.7157,-1.7173,-1.7174,-1.7311,-1.7311,0,0,-1.6944,-1.6935,-1.6987,-1.6999,-1.6983,-1.6997,-1.7003,-1.7098,-1.7111,-1.7144,-1.7151,-1.7159,-1.7174,-1.7175,-1.731,-1.7311,0,0,0,-1.6928,-1.6931,-1.6954,-1.6994,-1.7011,-1.6999,-1.7006,-1.7107,-1.7115,-1.7152,-1.716,-1.7175,-1.7176,-1.731,-1.7311,-1.7332,0,0,0,-1.6925,-1.6922,-1.6952,-1.6948,-1.7009,-1.706,-1.7013,-1.7109,-1.712,-1.716,-1.7175,-1.7177,-1.7309,-1.731,-1.733,-1.7343,0,0,0,-1.6912,-1.6921,-1.6934,-1.6947,-1.6987,-1.7058,-1.7072,-1.7111,-1.7125,-1.7173,-1.7178,-1.7309,-1.731,-1.7328,-1.734,-1.7377,0,0,0,-1.6895,-1.6952,-1.6934,-1.7001,-1.6986,-1.7071,-1.7072,-1.7135,-1.7179,-1.7175,-1.7309,-1.731,-1.7327,-1.7339,-1.7375,-1.7405,-1.7417,0,0,-1.6962,-1.696,-1.7,-1.6986,-1.7072,-1.7057,-1.7146,-1.7195,-1.7208,-1.7276,-1.728,-1.733,-1.734,-1.7376,-1.7487,-1.7497,0,0,0,-1.7018,-1.7047,-1.7071,-1.7112,-1.715,-1.7184,-1.722,-1.7238,-1.7296,-1.7241,-1.7354,-1.736,-1.7381,-1.7396,-1.7404,-1.7423,-1.7317,-1.7317,-1.7317,-1.71,-1.7113,-1.718,-1.7204,-1.7244,-1.728,-1.7314,-1.7345,-1.7347,-1.7374,-1.7394,-1.7459,-1.7477,-1.7483,-1.7502,-1.7411,-1.7411,-1.7411,-1.7411,-1.7199,-1.7242,-1.7242,-1.7308,-1.7321,-1.7377,-1.7414,-1.7414,-1.7468,-1.7445,-1.7465,-1.7439,-1.7493,-1.751,-1.7413,-1.7413,-1.7413,-1.7413,-1.7412,-1.7254,-1.7277,-1.7297,-1.7357,-1.7402,-1.7425,-1.7477,-1.7488,-1.7499,-1.7518,-1.7541,-1.754,-1.7541,-1.7528,-1.7528,-1.7528,-1.7529,-1.7529,-1.7529,-1.7303,-1.7326,-1.7367,-1.7412,-1.7439,-1.7477,-1.7514,-1.7542,-1.7576,-1.758,-1.758,-1.7579,-1.7495,-1.7474,-1.7533,-1.7532,-1.7531,-1.7531,-1.7531,-1.7399,-1.7379,-1.7443,-1.747,-1.7524,-1.7568,-1.7581,-1.7636,-1.7661,-1.7686,-1.7681,-1.7617,-1.7616,-1.761,-1.7592,-1.7678,-1.7678,-1.7678,-1.7678,-1.7445,-1.7445,-1.7513,-1.7556,-1.7599,-1.7618,-1.769,-1.772,-1.7747,-1.7764,-1.7753,-1.773,-1.7723,-1.7726,-1.7718,-1.7701,-1.7813,-1.7813,-1.7813,-1.7504,-1.7509,-1.7568,-1.7594,-1.7637,-1.7673,-1.7742,-1.7792,-1.7819,-1.7819,-1.7777,-1.7771,-1.7735,-1.7722,-1.7721,-1.7707,-1.7677,0,0]},{"header":{"parameterUnit":"m.s-1","parameterCategory":1,"la1":30.2992,"la2":30.254,"lo1":-89.0895,"lo2":-89.0443,"dy":0.0025,"dx":0.0025,"nx":19,"ny":19,"refTime":"2026-05-14T21:00:00:Z","depth":0,"parameterNumber":3,"parameterNumberName":"V-component_of_WINDS"},"data":[0,0,0,3.2098,3.2099,3.2132,3.2132,3.2194,3.2195,0,0,0,0,0,0,0,0,0,0,0,3.2101,3.2102,3.2098,3.2099,3.2132,3.2132,3.2194,3.2195,0,0,0,0,0,0,0,0,0,0,0,3.21,3.2101,3.2103,3.2099,3.2132,3.2132,3.2194,3.2162,0,0,0,0,0,0,0,0,0,0,3.2126,3.2141,3.2101,3.2103,3.21,3.2132,3.2132,3.216,3.2164,3.2188,0,3.2213,0,3.2205,3.22,3.2201,0,0,0,3.209,3.2138,3.2136,3.2103,3.21,3.2132,3.2115,3.2162,3.2166,3.2193,3.2213,3.2215,3.2206,3.2201,3.2201,3.237,3.2371,0,0,3.2088,3.2114,3.2133,3.2139,3.2136,3.2114,3.2116,3.2164,3.2188,3.2214,3.2216,3.2207,3.2201,3.2202,3.2368,3.237,0,0,0,3.2089,3.2113,3.2109,3.2137,3.2142,3.2115,3.2117,3.2186,3.2182,3.2217,3.2208,3.2202,3.2203,3.2367,3.2369,3.2453,0,0,0,3.2088,3.2113,3.2108,3.2124,3.2141,3.2165,3.2139,3.2179,3.2184,3.2207,3.2202,3.2204,3.2366,3.2368,3.2448,3.2488,0,0,0,3.2094,3.2114,3.2123,3.2126,3.2141,3.2163,3.2162,3.218,3.2179,3.2201,3.2204,3.2365,3.2368,3.2443,3.2481,3.2538,0,0,0,3.2109,3.2199,3.2125,3.2221,3.2141,3.2215,3.2161,3.2216,3.2245,3.2202,3.2366,3.2369,3.2442,3.2476,3.2534,3.2591,3.2618,0,0,3.2236,3.2215,3.227,3.2204,3.2298,3.2208,3.2314,3.2317,3.2296,3.2346,3.235,3.245,3.248,3.2537,3.2761,3.2782,0,0,0,3.2319,3.2358,3.2377,3.2406,3.2409,3.2415,3.2399,3.2399,3.244,3.2327,3.2486,3.2504,3.2536,3.2562,3.258,3.2606,3.2382,3.2382,3.2382,3.2535,3.2503,3.259,3.2561,3.2589,3.257,3.2589,3.2586,3.2547,3.2585,3.2599,3.2738,3.277,3.2783,3.281,3.2628,3.2628,3.2628,3.2628,3.2717,3.2767,3.271,3.2774,3.2738,3.2791,3.2776,3.2746,3.2789,3.2725,3.2752,3.2684,3.2808,3.2829,3.2635,3.2633,3.2633,3.2632,3.2632,3.2855,3.2872,3.2871,3.2906,3.2938,3.2905,3.2949,3.2916,3.2885,3.2912,3.2922,3.292,3.2913,3.2919,3.2919,3.292,3.292,3.2921,3.2921,3.2997,3.2992,3.3033,3.3043,3.3055,3.3068,3.3048,3.3059,3.3063,3.3035,3.3035,3.299,3.2826,3.2785,3.2928,3.2927,3.2926,3.2925,3.2925,3.3191,3.3141,3.3205,3.3217,3.3224,3.3256,3.3213,3.3238,3.3242,3.3265,3.3214,3.3099,3.3074,3.306,3.3025,3.3222,3.3222,3.3222,3.3222,3.3306,3.329,3.3345,3.3367,3.3384,3.335,3.3421,3.3407,3.3384,3.3384,3.3351,3.3303,3.3289,3.3273,3.3254,3.3221,3.3463,3.3463,3.3463,3.3422,3.3406,3.3473,3.3449,3.3452,3.3455,3.352,3.3546,3.351,3.3472,3.3383,3.3373,3.3295,3.3271,3.3231,3.3202,3.314,0,0]}]]